Location: Austin
(30.3000°N, 97.7500°W)
Time: 06:45:25
(UTC-05:00)

CZ-2D R/B - Pass Details

Date: 16 June 2025
Orbit: 789 x 842 km, 98.8° (Epoch: 07 July)

Event Time Altitude Azimuth Distance (km) Brightness Sun altitude
Rises 03:24:16 0° 19° (NNE) 3,361 6.5 -29.9°
Reaches altitude 10° 03:26:42 10° 24° (NNE) 2,418 5.5 -29.7°
Maximum altitude 03:31:54 53° 101° (E) 990 2.5 -29.1°
Enters shadow 03:31:56 53° 101° (ESE) 990 2.5 -29.1°
